Skip Page Navigation
NASA JPL Caltech
NASA Logo - Jet Propulsion Laboratory + View the NASA Portal
+ Center for Near-Earth Object Studies
JPL Home Earth Solar System Stars & Galaxies Technology
JPL Solar System Dynamics
BODIES ORBITS EPHEMERIDES TOOLS PHYSICAL DATA DISCOVERY FAQ SITE MAP
IMPORTANT: The SSD Announcement email list is now available. Major changes are coming in the near future, including possible hostname and/or URL changes. To be notified of such changes, subscribe to this email list.

Please visit this page for more details.


JPL Small-Body Database Browser
Search: [ help ]  
56535 (2000 HT52)
Classification: Main-belt Asteroid          SPK-ID: 2056535
Ephemeris | Orbit Diagram | Orbital Elements | Mission Design | Physical Parameters | Discovery Circumstances | Close-Approach Data ]

[ show orbit diagram ]
Orbital Elements at Epoch 2458600.5 (2019-Apr-27.0) TDB
Reference: JPL 17 (heliocentric ecliptic J2000)
 Element Value Uncertainty (1-sigma)   Units 
e .2087948581080393 3.5645e-08  
a 2.381432981833839 8.3575e-09 au
q 1.884202020298038 8.2936e-08 au
i 4.22486306075379 4.0227e-06 deg
node 55.59651973456243 5.6698e-05 deg
peri 244.5585929202088 5.7922e-05 deg
M 8.694044937406259 1.0472e-05 deg
tp 2458568.082811010550
(2019-Mar-25.58281101)
3.8998e-05 TDB
period 1342.319728069372
3.68
7.0662e-06
1.935e-08
d
yr
n .2681924376674251 1.4118e-09 deg/d
Q 2.87866394336964 1.0102e-08 au
  Orbit Determination Parameters
   # obs. used (total)      840  
   data-arc span      8064 days (22.08 yr)  
   first obs. used      1997-10-29  
   last obs. used      2019-11-27  
   planetary ephem.      DE431  
   SB-pert. ephem.      SB431-N16  
   condition code      0  
   norm. resid. RMS      .54969  
   source      ORB  
   producer      Otto Matic  
   solution date      2019-Dec-04 04:53:07  

Additional Information
 Earth MOID = .872621 au 
 Jupiter MOID = 2.35261 au 
 T_jup = 3.505 
[ show covariance matrix ]

Ephemeris | Orbit Diagram | Orbital Elements | Mission Design | Physical Parameters | Discovery Circumstances | Close-Approach Data ]

Physical Parameter Table
Parameter Symbol Value Units Sigma Reference Notes
absolute magnitude H 15.6   n/a MPO502531  

56535 (2000 HT52)          Discovered 2000-Apr-29 by LINEAR at Socorro
Reference: 20030318/Numbers.arcLast Updated: 2004-04-19

[ show close-approach data ]
Ephemeris | Orbit Diagram | Orbital Elements | Mission Design | Physical Parameters | Discovery Circumstances | Close-Approach Data ]
ABOUT SSD CREDITS/AWARDS PRIVACY/COPYRIGHT GLOSSARY LINKS
FirstGov 2020-Jan-19 05:29 UT
(server date/time)  
NASA Home Page
Site Manager:   Ryan S. Park
Webmaster  Alan B. Chamberlin